Snowfall_Accumulation
0.0 0.0 0.0 0.0 0.0 0.0 0.0 0.0 0.0 0.0 0.0 0.0 0.0 0.0 0.0 0.0 0.0 0.0 0.0 0.0 0.0 0.0 0.0 0.0 0.0 0.0 0.0 0.0 0.0 0.0 0.0 0.0 0.0 0.0 0.0 0.0 0.0 0.0 0.0 0.0 0.0 0.0 0.0 0.0 0.0 0.0 0.0 0.0 0.0
0.0 0.0 0.0 0.0 0.0 0.7 0.0 0.0 0.0 0.0 0.0 0.0 0.0 0.0 0.0 0.0 0.0 0.0 0.0 0.0 0.0 0.0 0.0 0.0 0.0 0.0 0.0 0.0 0.0 0.0 0.0 0.0 0.0 0.0 0.0 0.0 0.0 0.0 0.0 0.0 0.0 0.0 0.0 0.0 0.0 0.0 0.0 0.0 0.0
0.0 0.0 0.0 0.0 0.0 0.2 0.0 0.0 0.0 0.0 0.0 0.0 0.0 0.0 0.0 0.0 0.0 0.0 0.0 0.0 0.0 0.0 0.0 0.0 0.0 0.0 0.0 0.0 0.0 0.0 0.0 0.0 0.0 0.0 0.0 0.0 0.0 0.0 0.0 0.0 0.0 0.0 0.0 0.0 0.0 0.0 0.0 0.0 0.0
0.0 0.0 0.0 0.0 0.4 0.0 0.0 0.0 0.0 0.0 0.0 0.0 0.0 0.0 0.0 0.0 0.0 0.0 0.0 0.0 0.0 0.0 0.0 0.0 0.0 0.0 0.0 0.0 0.0 0.0 0.0 0.0 0.0 0.0 0.0 0.0 0.0 0.0 0.0 0.0 0.0 0.0 0.0 0.0 0.0 0.0 0.0 0.0 0.0
0.0 0.0 0.1 0.5 0.3 0.0 0.0 0.0 0.0 0.0 0.0 0.0 0.0 0.0 0.0 0.0 0.0 0.0 0.0 0.0 0.0 0.0 0.0 0.0 0.0 0.0 0.0 0.0 0.0 0.0 0.0 0.0 0.0 0.0 0.0 0.0 0.0 0.0 0.0 0.0 0.0 0.0 0.0 0.0 0.0 0.0 0.0 0.0 0.0
0.0 0.1 0.6 1.6 0.7 0.0 0.0 0.0 0.0 0.0 0.0 0.0 0.0 0.0 0.0 0.0 0.0 0.0 0.0 0.0 0.0 0.0 0.0 0.0 0.0 0.0 0.0 0.0 0.0 0.0 0.0 0.0 0.0 0.0 0.0 0.0 0.0 0.0 0.0 0.0 0.0 0.0 0.0 0.0 0.0 0.0 0.0 0.0 0.0
0.3 0.7 1.4 1.1 0.5 0.0 0.0 0.0 0.0 0.0 0.0 0.0 0.0 0.0 0.0 0.0 0.0 0.0 0.0 0.0 0.0 0.0 0.0 0.0 0.0 0.0 0.0 0.0 0.0 0.0 0.0 0.0 0.0 0.0 0.0 0.0 0.0 0.0 0.0 0.0 0.0 0.0 0.0 0.0 0.0 0.0 0.0 0.0 0.0
0.0 0.5 1.1 0.8 0.4 0.1 0.0 0.0 0.0 0.0 0.0 0.0 0.0 0.1 0.0 0.0 0.0 0.0 0.0 0.0 0.0 0.0 0.0 0.0 0.0 0.0 0.0 0.0 0.0 0.0 0.0 0.0 0.0 0.0 0.0 0.0 0.0 0.0 0.0 0.0 0.0 0.0 0.0 0.0 0.0 0.0 0.0 0.0 0.0
0.0 0.8 2.3 0.7 0.3 0.1 0.0 0.0 0.0 0.0 0.0 0.1 0.0 0.1 0.1 0.0 0.0 0.0 0.0 0.0 0.0 0.0 0.0 0.0 0.0 0.0 0.0 0.0 0.0 0.0 0.0 0.0 0.0 0.0 0.0 0.0 0.0 0.0 0.0 0.0 0.0 0.0 0.0 0.0 0.0 0.0 0.0 0.0 0.0
0.4 1.7 0.4 0.1 0.0 0.1 0.1 0.0 0.0 0.0 0.0 0.0 0.1 0.1 0.1 0.1 0.0 0.0 0.0 0.0 0.0 0.0 0.0 0.0 0.0 0.0 0.0 0.0 0.0 0.0 0.0 0.0 0.0 0.0 0.0 0.0 0.0 0.0 0.0 0.0 0.0 0.0 0.0 0.0 0.0 0.0 0.0 0.0 0.0
0.4 0.4 0.2 0.1 0.1 0.1 0.3 0.0 0.0 0.0 0.1 0.1 0.0 0.0 0.0 0.0 0.0 0.0 0.0 0.0 0.0 0.0 0.0 0.0 0.0 0.0 0.0 0.0 0.0 0.0 0.0 0.0 0.0 0.0 0.0 0.0 0.0 0.0 0.0 0.0 0.0 0.0 0.0 0.0 0.0 0.0 0.0 0.0 0.0
0.3 0.2 0.2 0.1 0.1 0.1 0.2 0.1 0.1 0.1 0.1 0.0 0.0 0.0 0.0 0.0 0.0 0.0 0.0 0.0 0.0 0.1 0.0 0.0 0.0 0.0 0.0 0.0 0.0 0.0 0.0 0.0 0.0 0.0 0.0 0.0 0.0 0.0 0.0 0.0 0.0 0.0 0.0 0.0 0.0 0.0 0.0 0.0 0.0
0.2 0.2 0.1 0.0 0.1 0.1 0.1 0.1 0.1 0.1 0.1 0.0 0.0 0.0 0.0 0.0 0.0 0.0 0.1 0.1 0.0 0.2 0.0 0.0 0.0 0.0 0.0 0.0 0.0 0.0 0.0 0.0 0.0 0.0 0.0 0.0 0.0 0.0 0.0 0.0 0.0 0.0 0.0 0.0 0.0 0.0 0.0 0.0 0.0
0.3 0.1 0.1 0.0 0.1 0.2 0.3 0.2 0.2 0.1 0.1 0.0 0.0 0.0 0.1 0.1 0.1 0.1 0.2 0.2 0.2 0.2 0.1 0.1 0.1 0.1 0.0 0.0 0.0 0.0 0.0 0.0 0.0 0.0 0.0 0.0 0.0 0.0 0.0 0.0 0.0 0.0 0.0 0.0 0.0 0.0 0.0 0.0 0.0
0.2 0.4 0.4 0.1 0.1 0.2 0.3 0.4 0.3 0.2 0.1 0.1 0.1 0.1 0.1 0.1 0.1 0.3 0.4 0.3 0.3 0.2 0.1 0.1 0.1 0.1 0.1 0.0 0.0 0.0 0.1 0.1 0.1 0.0 0.0 0.0 0.0 0.0 0.0 0.0 0.0 0.0 0.0 0.0 0.0 0.0 0.0 0.0 0.0
0.6 1.6 2.1 0.4 0.1 0.3 0.8 2.5 0.8 0.3 0.3 0.3 0.2 0.3 0.3 0.3 0.3 0.4 0.5 0.4 0.4 0.1 0.2 0.2 0.2 0.1 0.1 0.1 0.0 0.1 0.1 0.1 0.1 0.1 0.1 0.1 0.0 0.0 0.0 0.0 0.0 0.0 0.0 0.0 0.0 0.0 0.0 0.0 0.0
4.4 5.1 3.5 1.6 0.3 0.5 1.4 2.6 1.0 0.5 0.4 0.7 0.7 0.4 0.6 0.6 0.6 0.7 0.6 0.6 0.6 0.3 0.4 0.3 0.3 0.2 0.1 0.1 0.2 0.1 0.1 0.1 0.1 0.1 0.1 0.1 0.1 0.0 0.1 0.0 0.0 0.0 0.0 0.0 0.0 0.1 0.0 0.0 0.0
7.0 4.2 3.2 2.6 1.2 1.2 2.2 2.0 1.0 0.7 1.0 1.1 1.1 1.0 1.0 0.9 1.0 1.0 0.7 0.8 0.8 0.7 0.4 0.4 0.4 0.3 0.3 0.3 0.2 0.1 0.1 0.2 0.1 0.1 0.2 0.2 0.2 0.0 0.1 0.0 0.0 0.1 0.1 0.0 0.1 0.0 0.1 0.0 0.0
4.8 4.5 3.3 1.9 1.1 2.3 2.8 2.0 1.9 1.2 1.3 1.3 1.6 1.6 1.6 1.4 1.3 1.0 1.0 1.0 0.7 0.9 0.8 0.6 0.6 0.6 0.6 0.5 0.5 0.4 0.3 0.2 0.3 0.2 0.2 0.2 0.2 0.0 0.1 0.1 0.0 0.0 0.1 0.1 0.1 0.1 0.1 0.0 0.0
5.3 6.2 4.0 2.5 1.3 2.4 2.9 2.6 1.9 1.8 2.0 1.9 1.9 1.7 1.7 1.5 1.1 1.2 1.1 1.0 0.9 0.9 1.1 1.1 1.2 0.8 0.7 0.6 0.6 0.7 0.6 0.4 0.3 0.2 0.3 0.2 0.2 0.2 0.1 0.2 0.2 0.0 0.1 0.1 0.2 0.0 0.1 0.2 0.1
6.1 5.8 5.0 4.6 3.0 2.4 3.5 4.3 2.3 1.9 1.8 1.7 1.7 1.8 1.8 1.8 1.6 1.6 1.3 1.2 1.1 1.0 1.3 1.3 1.3 1.3 0.9 0.7 0.8 0.8 0.7 0.8 0.6 0.5 0.4 0.5 0.2 0.2 0.2 0.2 0.3 0.0 0.1 0.1 0.3 0.1 0.1 0.2 0.2
7.0 3.0 3.6 4.7 7.3 8.0 6.1 10.1 4.7 2.7 2.2 2.0 1.7 1.9 2.1 2.2 2.1 1.9 1.9 1.7 1.6 1.1 1.5 1.7 1.6 1.3 1.2 1.3 1.1 1.0 0.9 0.9 0.8 0.8 0.8 0.6 0.3 0.2 0.3 0.3 0.4 0.0 0.1 0.1 0.3 0.3 0.1 0.2 0.3
5.4 2.0 3.7 5.6 8.2 10.2 5.6 8.8 5.9 3.4 3.4 3.2 2.1 2.2 2.5 2.6 2.6 2.6 2.6 2.3 1.9 1.6 1.5 1.8 1.3 1.4 1.4 1.1 1.0 1.1 1.2 1.2 0.9 0.8 1.0 0.5 0.6 0.5 0.4 0.4 0.5 0.2 0.1 0.2 0.2 0.3 0.3 0.1 0.2
3.2 2.9 4.3 6.3 12.3 17.7 6.3 7.5 6.5 5.7 6.0 4.0 2.3 2.5 2.8 3.0 2.9 2.6 2.4 2.3 2.0 1.8 1.8 1.8 1.9 1.5 1.4 1.0 1.2 1.5 2.0 1.3 1.1 1.0 0.8 0.6 0.7 0.7 0.9 0.7 0.4 0.5 0.1 0.2 0.2 0.3 0.5 0.4 0.2
7.0 18.0 29.0 29.3 26.0 13.6 3.9 5.6 6.7 5.0 4.0 3.7 3.6 3.5 3.4 3.2 3.1 2.8 2.5 2.6 2.5 2.4 2.2 2.3 2.2 2.2 1.8 1.3 1.4 1.9 2.1 1.4 1.4 1.6 1.1 0.9 1.0 0.9 1.0 0.8 1.0 1.4 0.7 0.7 0.5 0.5 0.5 0.6 0.4
8.7 14.1 21.8 19.4 12.2 6.7 4.5 6.1 7.0 4.3 3.2 3.0 3.3 3.3 2.8 2.8 2.9 3.0 3.1 2.8 2.7 2.5 2.4 2.3 2.4 2.2 2.1 1.6 1.7 1.8 1.9 1.8 1.4 1.4 1.3 1.2 1.0 0.7 0.7 0.8 0.8 1.0 1.1 1.1 0.8 0.7 0.7 0.8 0.5
9.9 11.7 10.1 16.0 10.5 7.3 6.1 5.4 4.6 3.1 2.5 2.6 3.0 3.0 3.2 3.0 3.1 2.8 2.7 2.7 2.7 2.7 2.5 2.3 2.1 2.0 1.8 1.6 1.9 1.6 1.9 1.8 1.4 0.9 1.0 1.1 1.0 1.1 0.6 0.6 0.6 0.7 0.9 0.8 1.0 1.0 1.0 1.1 0.8
4.5 7.4 13.4 21.6 17.8 10.6 6.3 5.1 6.5 6.0 4.9 3.7 3.3 3.6 3.5 3.1 2.7 2.5 2.3 2.4 2.4 2.4 2.3 2.1 2.0 2.2 1.9 1.7 1.8 2.1 1.9 2.1 1.9 1.2 1.1 1.4 1.0 1.0 0.9 0.6 0.6 0.6 0.6 0.5 0.7 1.0 0.9 0.9 0.9
7.8 11.9 15.9 17.7 14.7 13.0 9.5 8.2 7.8 6.7 5.8 5.0 4.1 4.1 4.0 3.3 3.0 2.8 2.5 2.4 2.5 2.1 1.7 1.9 1.7 2.0 1.8 1.7 1.6 1.7 1.7 2.0 1.5 1.7 1.5 1.4 1.0 1.0 1.0 0.6 0.6 0.7 0.5 0.5 0.5 0.9 0.9 0.9 1.0
5.9 9.6 13.1 19.4 14.9 10.6 10.4 9.9 6.0 5.6 5.3 4.9 4.4 4.1 3.7 3.5 3.1 2.9 2.6 2.0 1.8 2.1 1.8 1.7 1.4 1.7 1.8 1.9 1.6 1.5 1.5 1.7 1.8 1.9 2.0 2.0 1.6 0.9 0.7 0.9 0.7 0.7 0.5 0.4 0.5 0.6 0.6 0.8 0.9